Weather History for KFAY - January, 2012

Change the Weather History Date:

Sunday, January 15, 2012

  Actual Average Record
Temperature  
Mean Temperature 39 °F 43 °F  
Max Temperature 48 °F 54 °F 80 °F (1932)
Min Temperature 29 °F 33 °F 13 °F (1964)
Degree Days  
Heating Degree Days 26 22  
Month to date heating degree days 270 330  
Since 1 July heating degree days 1153 1389  
Cooling Degree Days 0 0  
Month to date cooling degree days 0 0  
Year to date cooling degree days 0 0  
Moisture  
Dew Point 23 °F    
Average Humidity 54    
Maximum Humidity 69    
Minimum Humidity 38    
Precipitation  
Precipitation 0.00 in 0.10 in 1.79 in (1944)
Month to date precipitation 0.31 1.45  
Year to date precipitation 0.31 1.45  
Sea Level Pressure  
Sea Level Pressure 30.35 in    
Wind  
Wind Speed 7 mph (NNW)    
Max Wind Speed 17 mph    
Max Gust Speed 23 mph    
Visibility 10 miles    
Events      
T = Trace of Precipitation, MM = Missing Value Source: NWS Daily Summary

Daily Weather History Graph

Daily Weather History Graph

Search for Another Location

Airport or City:

Trip Planner

Search our weather history database for the weather conditions in past years. The results will help you decide how hot, cold, wet, or windy it might be!

Date:

Astronomy

Jan. 15, 2012 Rise Set
Actual Time 7:23 AM EST 5:26 PM EST
Civil Twilight 6:55 AM EST 5:54 PM EST
Nautical Twilight 6:24 AM EST 6:25 PM EST
Astronomical Twilight 5:54 AM EST 6:55 PM EST
Moon No Moon Rise 10:58 AM EST (1/15)
Length of Visible Light 10h 58m
Length of Day
10h 03m
Waning Gibbous, 58% of the Moon is Illuminated
Jan 15
Waning Gibbous
Jan 16
Last Quarter
Jan 23
New
Jan 30
First Quarter
Feb 7
Full

Hourly Weather History & Observations

Time (EST) Temp. Windchill Dew Point Humidity Pressure Visibility Wind Dir Wind Speed Gust Speed Precip Events Conditions
12:53 AM 30.9 °F 25.2 °F 21.0 °F 67% 30.14 in 10.0 mi South 5.8 mph - N/A   Clear
1:53 AM 32.0 °F 27.5 °F 21.0 °F 64% 30.11 in 10.0 mi South 4.6 mph - N/A   Clear
2:53 AM 32.0 °F 26.4 °F 21.0 °F 64% 30.12 in 10.0 mi SW 5.8 mph - N/A   Clear
3:53 AM 30.9 °F 24.3 °F 21.9 °F 69% 30.12 in 10.0 mi SW 6.9 mph - N/A   Mostly Cloudy
4:53 AM 33.1 °F 26.1 °F 21.9 °F 64% 30.14 in 10.0 mi WSW 8.1 mph - N/A   Clear
5:53 AM 32.0 °F 24.2 °F 21.9 °F 66% 30.18 in 10.0 mi West 9.2 mph - N/A   Clear
6:53 AM 32.0 °F 25.6 °F 21.2 °F 64% 30.24 in 10.0 mi WNW 6.9 mph - N/A   Clear
7:53 AM 34.0 °F 28.8 °F 23.0 °F 64% 30.28 in 10.0 mi NNW 5.8 mph - N/A   Clear
8:53 AM 37.9 °F 31.5 °F 26.1 °F 62% 30.32 in 10.0 mi North 9.2 mph - N/A   Clear
9:53 AM 41.0 °F 33.1 °F 26.1 °F 55% 30.36 in 10.0 mi North 15.0 mph - N/A   Clear
10:53 AM 43.0 °F 36.0 °F 25.0 °F 49% 30.38 in 10.0 mi North 13.8 mph - N/A   Clear
11:53 AM 46.9 °F - 25.0 °F 42% 30.39 in 10.0 mi North 11.5 mph - N/A   Clear
12:53 PM 46.0 °F 39.6 °F 23.0 °F 40% 30.39 in 10.0 mi North 15.0 mph - N/A   Partly Cloudy
1:53 PM 46.0 °F 41.9 °F 23.0 °F 40% 30.38 in 10.0 mi NNW 8.1 mph 16.1 mph N/A   Scattered Clouds
2:53 PM 45.0 °F 40.6 °F 23.0 °F 42% 30.40 in 10.0 mi NNW 8.1 mph - N/A   Partly Cloudy
3:53 PM 46.0 °F 42.5 °F 23.0 °F 40% 30.41 in 10.0 mi NNW 6.9 mph - N/A   Scattered Clouds
4:53 PM 45.0 °F 42.6 °F 23.0 °F 42% 30.44 in 10.0 mi North 4.6 mph - N/A   Clear
5:53 PM 41.0 °F - 24.1 °F 51% 30.46 in 10.0 mi Calm Calm - N/A   Clear
6:53 PM 36.0 °F 32.1 °F 25.0 °F 64% 30.48 in 10.0 mi NNE 4.6 mph - N/A   Clear
7:53 PM 37.0 °F 34.5 °F 24.1 °F 59% 30.50 in 10.0 mi ENE 3.5 mph - N/A   Clear
8:53 PM 35.1 °F 32.2 °F 24.1 °F 64% 30.52 in 10.0 mi East 3.5 mph - N/A   Clear
9:53 PM 34.0 °F 28.8 °F 23.0 °F 64% 30.53 in 10.0 mi East 5.8 mph - N/A   Clear
10:53 PM 32.0 °F 25.6 °F 21.9 °F 66% 30.53 in 10.0 mi East 6.9 mph - N/A   Clear
11:53 PM 30.0 °F - 21.9 °F 72% 30.55 in 10.0 mi Calm Calm - N/A   Clear